CAPE
275 300 403 630 637 485 380 234 274 366 299 259 281 423 431 314 295 278 230 182 265 415 299 251 160 168 367 543 503 312 368 352 441 682 620 959 643 576 672 592 686 763 588 321 24 8 6 8 5 0 0 0 0 0 0 0 0 0 0 0 0 0 0 0 0 0 0 0 0 0 0 0 0 0 0 0 0 0 0 0 0 0 0 0 0 0
154 335 410 224 352 275 248 239 289 262 319 450 412 339 382 395 390 455 366 264 166 370 265 432 251 486 531 355 276 366 315 275 276 364 676 505 961 572 799 466 276 284 361 238 48 7 9 13 13 7 0 0 0 0 0 0 0 0 0 0 0 0 0 0 0 0 0 0 0 0 0 0 0 0 0 0 0 4 2 4 0 0 0 1 3 0
148 606 375 287 291 272 258 239 332 392 324 410 326 422 574 458 368 368 371 459 280 293 368 480 478 455 492 456 295 430 468 441 453 372 362 429 352 390 362 233 288 304 290 215 31 6 8 12 12 2 0 0 0 0 0 0 0 0 0 0 0 0 0 0 0 0 0 0 0 0 0 0 0 0 0 1 1 5 2 0 0 2 2 0 0 0
649 683 314 263 278 275 270 254 326 375 544 293 287 638 541 217 584 582 508 332 295 622 388 487 405 347 553 590 626 606 522 574 572 573 527 434 408 396 318 229 300 267 223 144 57 6 8 12 13 0 0 0 0 0 0 0 0 0 0 0 0 0 0 0 0 0 0 0 0 2 0 0 0 0 0 0 0 2 0 1 0 2 0 0 0 0
189 469 405 218 201 163 349 306 389 177 635 468 359 48 248 420 508 599 353 579 358 230 375 415 589 424 394 526 496 432 615 637 588 590 502 566 409 421 497 339 363 164 182 143 92 19 12 14 10 1 0 0 0 0 0 0 0 0 0 0 0 0 0 0 0 0 0 0 0 0 0 0 0 0 0 0 0 0 1 0 0 0 0 0 0 0
586 336 283 369 281 237 28 199 78 175 107 68 372 876 447 313 285 348 226 584 718 370 548 762 331 196 358 374 424 603 523 616 661 630 448 474 457 351 373 396 228 234 191 85 88 14 6 5 5 0 0 0 0 0 0 0 0 0 0 0 0 0 0 0 0 0 0 0 0 0 0 0 0 0 0 1 1 1 0 0 0 0 0 0 0 0
446 275 371 346 353 238 57 105 144 212 178 402 376 349 357 351 361 318 419 255 351 741 517 184 165 53 244 357 380 488 498 491 495 452 449 432 220 284 264 220 212 148 131 79 49 11 4 4 4 1 0 0 0 0 0 0 0 0 0 0 0 0 0 0 0 0 0 0 0 0 0 0 0 0 0 3 3 1 0 0 0 0 0 0 0 0
397 294 392 395 360 364 41 62 178 258 234 228 132 388 353 487 502 490 511 484 543 202 393 431 416 582 449 233 364 481 482 494 542 429 419 334 218 179 238 284 196 141 203 123 37 22 5 4 2 2 0 0 0 0 0 0 0 0 0 0 0 0 0 0 0 0 0 0 0 0 0 0 0 0 0 2 0 0 0 0 2 0 0 0 0 0
488 331 393 450 427 488 97 293 125 222 228 359 277 250 508 527 542 442 418 678 489 308 925 575 467 850 252 518 453 514 524 448 481 457 425 384 260 222 200 181 222 128 130 73 23 12 8 3 2 0 0 0 0 0 0 0 0 0 0 0 0 0 0 0 0 0 0 0 0 0 0 0 0 1 1 1 0 0 2 0 0 0 0 0 0 0
461 404 300 389 324 515 279 210 198 135 108 273 19 396 451 501 399 454 623 664 798 253 616 428 465 737 345 546 551 623 390 426 454 396 382 375 316 268 197 199 229 103 165 51 6 3 4 1 1 0 0 0 0 0 0 0 0 0 0 0 0 0 0 0 0 0 0 0 0 0 2 0 0 2 0 2 0 0 0 0 3 0 0 0 0 0
422 273 290 340 414 366 237 314 222 141 320 290 408 483 423 508 540 490 576 529 162 232 544 400 324 441 444 205 494 489 541 286 292 316 371 359 354 332 293 332 230 86 87 26 9 0 0 0 0 0 0 0 0 0 0 0 0 0 0 0 0 0 0 0 0 0 0 0 0 0 1 2 0 3 2 2 0 0 0 1 1 1 0 0 0 0
275 199 243 275 184 96 311 299 212 296 270 366 486 764 419 796 613 614 908 760 278 238 197 282 391 386 420 368 176 246 248 201 226 294 421 392 402 398 324 216 148 70 83 8 2 0 0 0 0 0 0 0 0 0 0 0 0 0 0 0 0 0 0 0 0 0 0 0 0 0 2 0 2 0 0 0 0 0 0 0 0 0 0 0 0 1
266 356 296 132 169 338 326 512 364 340 405 397 591 243 326 224 661 116 601 40 23 388 397 202 328 456 598 352 263 122 188 134 234 304 395 446 431 522 349 298 150 86 45 33 16 33 26 0 0 0 0 0 0 0 0 0 0 0 0 0 0 0 0 0 0 0 0 0 0 0 0 0 0 1 0 0 0 0 0 0 0 0 0 0 0 0
372 222 110 206 185 256 421 263 577 497 414 511 488 800 542 315 18 2 408 209 362 634 483 553 282 602 378 191 256 304 295 315 244 316 352 467 560 596 464 324 201 136 92 59 146 101 33 0 0 0 0 0 0 0 0 0 0 0 0 0 0 0 0 0 0 0 0 0 0 3 0 1 0 3 0 0 0 0 0 0 2 1 1 0 2 0
53 516 234 249 282 275 367 364 317 253 457 521 446 80 675 453 396 74 178 163 261 501 600 317 818 282 653 655 334 636 502 428 302 297 433 486 598 664 471 383 337 266 251 250 184 78 12 4 0 0 0 0 0 0 0 0 0 0 0 0 0 0 0 0 0 0 0 0 0 2 0 2 0 0 0 0 0 0 0 0 1 1 0 0 0 0
0 53 317 162 327 276 350 250 288 266 319 524 398 276 144 613 129 325 211 360 282 63 621 724 352 311 515 450 516 403 444 314 362 447 586 600 613 543 537 561 478 412 379 282 226 130 43 6 0 0 0 0 0 0 0 0 0 0 0 0 0 0 0 0 0 0 0 0 0 1 2 1 0 0 0 0 0 0 0 0 0 0 0 0 0 3
0 43 0 196 40 249 251 383 328 139 105 537 210 395 319 65 69 235 308 477 783 218 104 73 579 582 311 448 542 430 286 349 369 473 633 791 754 566 601 668 591 462 386 322 344 174 69 0 0 0 0 0 0 0 0 0 0 0 0 0 0 0 0 0 0 0 0 0 0 0 2 2 0 0 0 0 0 0 1 2 1 0 0 0 2 0
0 364 46 74 118 131 287 313 304 196 68 210 258 442 100 6 105 157 220 122 241 215 25 436 280 290 53 172 832 505 438 477 344 378 528 769 757 580 697 756 571 469 410 400 354 195 61 0 0 0 0 0 0 0 0 0 0 0 0 0 0 0 0 0 0 0 0 0 0 0 0 1 0 0 0 0 0 0 0 0 0 0 0 0 0 0
0 32 72 0 274 230 142 196 316 118 32 220 115 0 184 238 270 585 80 2 92 5 14 258 154 327 263 620 822 760 667 627 437 464 575 734 660 581 648 630 552 522 480 425 407 220 50 0 0 0 0 0 0 0 0 0 0 0 0 0 0 0 0 0 0 0 0 0 0 0 0 0 0 0 0 0 0 0 0 0 0 0 0 2 0 0
0 0 155 18 196 248 210 218 406 402 51 0 1 70 48 11 109 368 146 54 390 34 44 28 228 359 297 207 274 495 736 788 557 594 716 716 622 498 510 499 587 593 584 503 478 218 44 0 0 0 0 0 0 0 0 0 0 0 0 0 0 0 0 0 0 0 0 0 0 0 0 0 0 0 0 0 0 0 0 0 0 0 0 0 0 1
133 40 0 148 69 171 397 329 373 437 446 205 107 176 176 199 221 4 136 134 195 83 91 55 92 124 43 162 338 348 684 816 669 705 760 775 688 532 555 551 591 620 672 577 453 232 32 0 0 0 0 0 0 0 0 0 0 0 0 0 0 0 0 0 0 0 0 0 0 0 0 0 0 0 0 0 0 0 0 0 0 0 0 0 3 5
15 4 36 254 221 270 385 428 211 139 355 396 349 338 209 319 346 137 268 227 190 166 126 95 16 260 80 476 792 680 762 833 644 706 783 780 687 608 614 634 727 701 761 656 486 264 3 0 0 0 0 0 0 0 0 0 0 0 0 0 0 0 0 0 0 0 0 0 0 0 0 0 0 0 0 0 0 0 0 0 0 0 0 0 0 0
428 159 163 190 237 415 284 50 72 139 232 294 310 372 247 269 212 316 74 353 292 300 67 161 65 204 159 924 974 755 822 709 626 602 708 726 751 697 716 741 760 784 787 708 515 244 0 0 0 0 0 0 0 0 0 0 0 0 0 0 0 0 0 0 0 0 0 0 0 0 0 0 0 0 0 0 0 0 0 0 0 0 0 0 0 0
328 32 64 25 80 149 81 14 0 0 24 149 150 111 256 219 247 260 330 501 193 151 292 310 57 267 469 1055 1206 1014 1054 908 634 601 674 683 728 834 795 800 858 856 789 714 476 170 0 0 0 0 0 0 0 0 0 0 0 0 0 0 0 0 0 0 0 0 0 0 0 0 0 0 0 0 0 0 0 0 0 0 0 0 0 0 0 0
0 177 107 72 39 145 112 9 23 10 21 197 271 394 175 64 123 252 297 336 129 125 159 122 49 62 1006 1096 768 731 835 913 820 694 686 677 928 935 848 879 916 1016 875 671 432 79 0 0 0 0 0 0 0 0 0 0 0 0 0 0 0 0 0 0 0 0 0 0 0 0 0 0 0 0 0 0 0 0 0 0 0 0 0 0 0 0
3 85 22 0 1 0 7 84 256 393 209 198 241 294 336 147 212 390 171 295 157 282 250 130 97 206 632 988 1036 883 765 776 884 908 762 753 1085 1000 877 1095 1238 1165 1005 713 403 34 0 0 0 0 0 0 0 0 0 0 0 0 0 0 0 0 0 0 0 0 0 0 0 0 0 0 0 0 0 0 0 0 0 0 0 0 0 0 0 0
196 720 250 68 119 183 262 205 249 271 329 136 256 174 271 166 168 365 336 208 216 315 383 281 106 179 133 523 334 952 1082 853 847 1041 838 825 1012 985 1211 1339 1275 1153 947 631 387 67 0 0 0 0 0 0 0 0 0 0 0 0 0 0 0 0 0 0 0 0 0 0 0 0 0 0 0 0 0 0 0 0 0 0 0 0 0 0 0 0
407 182 215 256 114 149 71 55 297 325 184 137 91 240 161 201 224 402 293 236 254 126 33 151 253 302 243 140 322 854 1110 1120 1032 979 827 898 1274 1189 1366 1376 1048 1045 870 551 375 76 0 0 0 0 0 0 0 0 0 0 0 0 0 0 0 0 0 0 0 0 0 0 0 0 0 0 0 0 0 0 0 0 0 0 0 0 0 0 0 0
192 105 1113 753 413 388 101 165 231 216 157 165 99 156 351 306 321 460 545 370 512 284 79 729 542 392 310 153 363 399 1118 1344 1143 1149 954 1002 1293 1257 1322 1222 1015 967 746 450 385 97 0 0 0 0 0 0 0 0 0 0 0 0 0 0 0 0 0 0 0 0 0 0 0 0 0 0 0 0 0 0 0 0 0 0 0 0 0 0 0 0
697 116 1276 569 690 585 309 145 155 172 265 138 107 214 213 276 419 378 420 326 308 401 75 160 540 773 359 252 293 1022 1225 1034 1037 1259 1209 1171 1213 1184 1223 1111 876 832 642 422 354 137 0 0 0 0 0 0 0 0 0 0 0 0 0 0 0 0 0 0 0 0 0 0 0 0 0 0 0 0 0 0 0 0 0 0 0 0 0 0 0 0
484 732 710 740 346 558 406 152 200 163 158 228 184 176 180 222 269 244 229 323 570 528 298 308 547 644 401 441 797 1799 1475 1403 1587 1284 1214 1264 1230 1171 1149 980 880 751 530 405 282 178 14 0 0 0 0 0 0 0 0 0 0 0 0 0 0 0 0 0 0 0 0 0 0 0 0 0 0 0 0 0 0 0 0 0 0 0 0 0 0 0
371 718 748 896 199 377 360 221 248 231 180 124 136 186 152 93 79 113 300 478 704 421 367 410 489 427 140 1394 1359 1469 1258 1146 1348 1310 1167 1214 1138 1153 1082 869 846 770 562 369 183 125 0 0 0 0 0 0 0 0 0 0 0 0 0 0 0 0 0 0 0 0 0 0 0 0 0 0 0 0 0 0 0 0 0 0 0 0 0 0 0 0
328 474 359 463 173 175 714 431 342 297 293 210 180 134 78 43 2 80 348 380 512 479 327 290 226 231 1719 973 1510 1496 1240 1165 1179 1250 1287 1154 1064 1002 986 881 832 692 555 233 101 24 0 0 0 0 0 0 0 0 0 0 0 0 0 0 0 0 0 0 0 0 0 0 0 0 0 0 0 0 0 0 0 0 0 0 0 0 0 0 0 0
689 359 179 336 138 116 574 589 655 423 105 82 1657 747 227 335 456 399 460 573 676 537 311 15 91 1832 1247 1114 1069 1980 1361 1366 1395 1397 1360 1359 1240 1032 907 867 777 573 448 127 25 6 0 0 0 0 0 0 0 0 0 0 0 0 0 0 0 0 0 0 0 0 0 0 0 0 0 0 0 0 0 0 0 0 0 0 0 0 0 0 0 0
507 399 165 629 88 24 712 718 316 152 97 1642 576 852 272 192 162 270 345 296 418 642 600 448 402 497 782 949 1519 2086 1804 1501 1264 1281 1306 1184 1191 1098 970 837 706 491 269 43 12 0 0 0 0 0 0 0 0 0 0 0 0 0 0 0 0 0 0 0 0 0 0 0 0 0 0 0 0 0 0 0 0 0 0 0 0 0 0 0 0 0
518 308 379 157 136 304 153 216 8 173 779 476 1298 1088 920 240 506 818 770 498 301 429 624 736 619 528 1368 1332 1027 1096 1279 994 913 926 1114 1140 1108 1075 991 902 606 335 175 122 88 2 0 0 0 0 0 0 0 0 0 0 0 0 0 0 0 0 0 0 0 0 0 0 0 0 0 0 0 0 0 0 0 0 0 0 0 0 0 0 0 0
611 364 228 189 285 131 47 151 86 445 376 286 577 1446 670 547 1397 784 265 147 120 52 32 381 578 1098 1233 1160 1106 974 901 602 782 950 872 1058 937 935 942 805 487 287 266 209 57 0 0 0 0 0 0 0 0 0 0 0 0 0 0 0 0 0 0 0 0 0 0 0 0 0 0 0 0 0 0 0 0 0 0 0 0 0 0 0 0 0
425 498 352 78 79 136 37 203 34 42 47 96 585 1564 1407 1418 1286 1100 585 341 168 9 38 287 591 1262 1289 1162 1094 1018 812 841 361 502 973 912 832 788 722 561 324 236 222 113 18 0 0 0 0 0 0 0 0 0 0 0 0 0 0 0 0 0 0 0 0 0 0 0 0 0 0 0 0 0 0 0 0 0 0 0 0 0 0 0 0 0
466 628 633 179 97 8 93 101 56 33 17 17 531 855 1319 1015 999 1121 372 149 544 472 581 685 566 1267 1363 1299 1322 1077 932 494 201 845 923 912 753 692 591 375 146 164 94 14 0 0 0 0 0 0 0 0 0 0 0 0 0 0 0 0 0 0 0 0 0 0 0 0 0 0 0 0 0 0 0 0 0 0 0 0 0 0 0 0 0 0
314 181 255 146 93 64 121 93 78 57 38 243 926 662 765 810 928 1005 287 178 675 714 696 875 784 1373 1314 1367 1335 1187 754 311 274 1358 1112 833 741 650 479 275 136 86 2 0 0 0 0 0 0 0 0 0 0 0 0 0 0 0 0 0 0 0 0 0 0 0 0 0 0 0 0 0 0 0 0 0 0 0 0 0 0 0 0 0 0 0
335 256 185 131 144 114 35 140 124 61 312 704 912 936 694 885 789 310 111 397 612 1039 809 1208 1080 1246 1417 1536 1195 974 999 1166 1007 1108 1048 660 565 516 247 191 84 9 0 0 0 0 0 0 0 0 0 0 0 0 0 0 0 0 0 0 0 0 0 0 0 0 0 0 0 0 0 0 0 0 0 0 0 0 0 0 0 0 0 0 0 0
400 300 147 234 157 99 278 78 161 166 645 1232 758 605 280 509 97 68 1474 1634 1078 1210 1405 1267 1480 1412 1548 1516 1131 1576 1382 989 766 840 773 590 585 437 166 68 10 0 0 0 0 0 0 0 0 0 0 0 0 0 0 0 0 0 0 0 0 0 0 0 0 0 0 0 0 0 0 0 0 0 0 0 0 0 0 0 0 0 0 0 0 0
355 203 143 99 122 136 314 164 63 142 272 1123 791 398 689 426 109 322 704 871 1146 1484 1554 1295 1545 1595 1421 1340 1290 1650 1064 959 1051 815 611 538 474 190 27 207 156 0 0 0 0 0 0 0 0 0 0 0 0 0 0 0 0 0 0 0 0 0 0 0 0 0 0 0 0 0 0 0 0 0 0 0 0 0 0 0 0 0 0 0 0 0
543 257 102 132 190 305 154 136 94 136 1374 860 469 312 517 430 892 756 198 70 1230 1423 1477 1513 1372 1602 1381 1373 1634 1368 1333 1232 955 752 541 491 364 47 0 0 238 250 263 258 231 0 0 0 0 0 0 0 0 0 0 0 0 0 0 0 0 0 0 0 0 0 0 0 0 0 0 0 0 0 0 0 0 0 0 0 0 0 0 0 0 0
156 368 448 113 400 90 176 213 462 1234 1652 946 641 974 1394 1351 1602 1794 1587 1348 860 1292 1626 1297 1404 1632 1489 1580 1704 1452 1314 1305 1106 779 669 547 322 64 0 0 179 262 274 293 198 0 0 0 0 0 0 0 0 0 0 0 0 0 0 0 0 0 0 0 0 0 0 0 0 0 0 0 0 0 0 0 0 0 0 0 0 0 0 0 0 0
209 478 793 137 675 477 1003 903 934 762 1051 1157 765 1847 1735 1813 1485 911 1105 1007 1014 1582 1543 1388 1648 1650 1572 1811 1585 1266 1296 1326 1082 789 693 475 245 72 7 254 258 280 286 266 141 0 0 0 0 0 0 0 0 0 0 0 0 0 0 0 0 0 0 0 0 0 0 0 0 0 0 0 0 0 0 0 0 0 0 0 0 0 0 0 0 0
29 156 208 21 467 233 162 604 600 614 899 1173 1019 1224 1416 1365 1296 919 1047 1242 1862 1838 1413 2256 1744 1681 1579 1721 1460 1347 1327 1178 1068 853 667 403 231 84 66 276 285 283 271 36 0 0 0 0 0 0 0 0 0 0 0 0 0 0 0 0 0 0 0 0 0 0 0 0 0 0 0 0 0 0 0 0 0 0 0 0 0 0 0 0 0 0
128 344 149 6 416 64 165 386 493 611 1314 1592 1135 950 1068 952 868 960 1029 1697 1938 1764 1666 1864 2231 1811 1690 1539 1427 1418 1412 1100 1086 862 538 369 249 84 119 279 308 310 97 0 0 0 0 0 0 0 0 0 0 0 0 0 0 0 0 0 0 0 0 0 0 0 0 0 0 0 0 0 0 0 0 0 0 0 0 0 0 0 0 0 0 0
429 187 50 64 368 158 401 480 516 685 687 628 632 950 1129 1076 1028 1021 917 1270 1292 1261 1798 1721 1714 1725 1588 1614 1488 1541 1229 1030 1084 828 496 366 248 216 249 298 318 186 0 0 0 0 0 0 0 0 0 0 0 0 0 0 0 0 0 0 0 0 0 0 0 0 0 0 0 0 0 0 0 0 0 0 0 0 0 0 0 0 0 0 0 0
198 217 261 451 240 50 259 401 395 280 285 272 476 716 991 1383 1573 1451 1408 1165 1310 1464 1598 1624 1669 1849 1524 1605 1619 1353 1219 1053 1071 817 533 394 296 136 21 0 0 0 0 0 0 0 0 0 0 0 0 0 0 0 0 0 0 0 0 0 0 0 0 0 0 0 0 0 0 0 0 0 0 0 0 0 0 0 0 0 0 0 0 0 0 0
60 354 279 412 73 55 113 147 348 298 148 182 367 355 1117 1723 1390 1604 1434 1146 1226 1624 1554 1702 1509 1397 1413 1506 1367 1161 1196 1122 1114 792 596 429 300 172 46 0 0 0 0 0 0 0 0 0 0 0 0 0 0 0 0 0 0 0 0 0 0 0 0 0 0 0 0 0 0 0 0 0 0 0 0 0 0 0 0 0 0 0 0 0 0 0
Wind_Speed
10 10 10 10 8 7 6 8 10 9 7 8 8 8 3 4 4 5 5 4 6 6 4 5 4 6 7 8 8 8 8 9 9 8 7 8 8 9 9 7 5 4 4 3 nan nan nan nan nan nan nan nan nan nan nan nan nan nan nan nan nan nan nan nan nan nan nan nan nan nan nan nan nan nan nan nan nan nan nan nan nan nan nan nan nan nan
14 14 9 5 6 6 7 8 9 7 11 9 8 8 8 7 5 5 6 9 7 13 7 8 8 8 8 8 8 8 10 10 11 10 9 9 8 8 6 7 4 2 3 3 nan nan nan nan nan nan nan nan nan nan nan nan nan nan nan nan nan nan nan nan nan nan nan nan nan nan nan nan nan nan nan nan nan nan nan nan nan nan nan nan nan nan
13 11 5 5 5 6 7 8 9 10 10 11 9 8 7 6 6 7 8 10 9 15 8 12 10 9 9 10 9 10 10 8 9 10 8 8 8 7 6 5 3 3 3 3 nan nan nan nan nan nan nan nan nan nan nan nan nan nan nan nan nan nan nan nan nan nan nan nan nan nan nan nan nan nan nan nan nan nan nan nan nan nan nan nan nan nan
9 4 5 4 6 5 6 9 10 11 13 10 10 12 9 11 15 10 9 12 12 16 11 14 13 9 10 10 10 9 10 8 7 7 7 8 7 6 5 4 4 4 4 4 nan nan nan nan nan nan nan nan nan nan nan nan nan nan nan nan nan nan nan nan nan nan nan nan nan nan nan nan nan nan nan nan nan nan nan nan nan nan nan nan nan nan
12 5 3 5 5 6 7 10 12 14 11 12 13 nan 11 14 13 13 10 12 14 12 12 13 14 11 12 11 11 9 8 8 7 7 7 7 7 5 5 3 4 3 4 4 nan nan nan nan nan nan nan nan nan nan nan nan nan nan nan nan nan nan nan nan nan nan nan nan nan nan nan nan nan nan nan nan nan nan nan nan nan nan nan nan nan nan
3 4 5 5 7 7 nan 11 nan 13 10 nan 13 15 11 12 11 8 11 13 14 13 14 14 13 9 11 12 10 8 9 9 8 9 8 8 6 6 5 4 3 3 4 nan nan nan nan nan nan nan nan nan nan nan nan nan nan nan nan nan nan nan nan nan nan nan nan nan nan nan nan nan nan nan nan nan nan nan nan nan nan nan nan nan nan nan
4 6 8 6 8 9 nan 8 7 15 10 14 7 13 13 12 12 12 12 17 12 10 11 12 11 nan 10 13 12 11 11 10 9 10 10 8 7 6 5 4 4 5 4 nan nan nan nan nan nan nan nan nan nan nan nan nan nan nan nan nan nan nan nan nan nan nan nan nan nan nan nan nan nan nan nan nan nan nan nan nan nan nan nan nan nan nan
7 9 9 10 10 10 nan nan 9 13 12 7 8 11 13 14 13 12 13 14 9 9 10 14 13 10 11 12 13 12 13 12 11 11 11 8 7 7 6 6 6 6 5 4 nan nan nan nan nan nan nan nan nan nan nan nan nan nan nan nan nan nan nan nan nan nan nan nan nan nan nan nan nan nan nan nan nan nan nan nan nan nan nan nan nan nan
10 9 12 13 12 10 nan 5 8 11 11 5 6 11 13 16 13 12 16 12 9 12 12 13 12 14 6 9 11 13 13 13 13 12 11 10 8 8 7 7 7 7 7 nan nan nan nan nan nan nan nan nan nan nan nan nan nan nan nan nan nan nan nan nan nan nan nan nan nan nan nan nan nan nan nan nan nan nan nan nan nan nan nan nan nan nan
8 8 10 11 13 9 9 9 6 9 9 3 nan 11 13 14 16 14 15 14 11 14 8 7 10 12 6 10 12 12 12 12 12 12 11 11 10 9 8 8 8 8 8 nan nan nan nan nan nan nan nan nan nan nan nan nan nan nan nan nan nan nan nan nan nan nan nan nan nan nan nan nan nan nan nan nan nan nan nan nan nan nan nan nan nan nan
2 5 6 13 8 7 12 8 4 7 6 3 6 10 12 13 15 15 14 13 12 12 5 7 10 11 7 8 10 11 10 10 9 9 9 11 11 11 9 9 9 nan nan nan nan nan nan nan nan nan nan nan nan nan nan nan nan nan nan nan nan nan nan nan nan nan nan nan nan nan nan nan nan nan nan nan nan nan nan nan nan nan nan nan nan nan
6 8 11 7 7 nan 10 6 5 9 5 8 8 10 11 13 13 14 14 11 11 6 5 5 9 9 9 7 7 8 6 7 8 11 12 14 14 13 12 12 11 nan nan nan nan nan nan nan nan nan nan nan nan nan nan nan nan nan nan nan nan nan nan nan nan nan nan nan nan nan nan nan nan nan nan nan nan nan nan nan nan nan nan nan nan nan
5 8 3 8 11 12 11 7 6 8 9 13 9 11 14 9 11 11 14 nan nan 1 3 5 7 9 11 2 4 7 8 7 6 8 13 14 15 15 15 14 13 nan nan nan nan nan nan nan nan nan nan nan nan nan nan nan nan nan nan nan nan nan nan nan nan nan nan nan nan nan nan nan nan nan nan nan nan nan nan nan nan nan nan nan nan nan
2 2 8 8 11 14 11 9 4 10 11 14 12 10 13 7 nan nan 5 3 6 7 3 5 5 9 2 5 3 5 5 6 7 6 12 14 16 17 16 16 16 15 nan nan 14 15 nan nan nan nan nan nan nan nan nan nan nan nan nan nan nan nan nan nan nan nan nan nan nan nan nan nan nan nan nan nan nan nan nan nan nan nan nan nan nan nan
nan 4 9 11 9 15 15 9 5 10 8 11 13 nan 12 11 8 nan 4 3 3 2 4 5 9 4 5 3 2 3 2 5 7 7 10 13 16 17 17 17 18 17 16 15 15 nan nan nan nan nan nan nan nan nan nan nan nan nan nan nan nan nan nan nan nan nan nan nan nan nan nan nan nan nan nan nan nan nan nan nan nan nan nan nan nan nan
nan nan 5 13 2 14 15 11 7 4 5 5 10 11 11 8 5 8 5 6 4 nan 6 8 5 1 2 5 4 3 4 8 9 9 11 14 14 17 17 17 18 18 17 16 16 15 nan nan nan nan nan nan nan nan nan nan nan nan nan nan nan nan nan nan nan nan nan nan nan nan nan nan nan nan nan nan nan nan nan nan nan nan nan nan nan nan
nan nan nan 8 nan 9 13 9 9 6 4 3 8 8 6 nan nan 6 7 7 4 8 3 nan 9 9 11 5 6 5 7 10 12 14 15 16 17 18 17 18 19 18 18 17 17 15 nan nan nan nan nan nan nan nan nan nan nan nan nan nan nan nan nan nan nan nan nan nan nan nan nan nan nan nan nan nan nan nan nan nan nan nan nan nan nan nan
nan 7 nan nan 10 8 3 7 8 7 nan 3 7 1 nan nan 6 4 5 4 5 2 nan 5 1 2 nan 4 7 9 10 13 15 17 18 19 20 20 18 19 19 19 19 19 18 17 nan nan nan nan nan nan nan nan nan nan nan nan nan nan nan nan nan nan nan nan nan nan nan nan nan nan nan nan nan nan nan nan nan nan nan nan nan nan nan nan
nan nan nan nan 3 9 7 6 9 7 nan 6 6 nan 7 3 5 4 nan nan nan nan nan 3 5 8 4 7 9 11 13 16 17 17 19 21 22 21 20 20 20 19 19 19 19 18 nan nan nan nan nan nan nan nan nan nan nan nan nan nan nan nan nan nan nan nan nan nan nan nan nan nan nan nan nan nan nan nan nan nan nan nan nan nan nan nan
nan nan 7 nan 5 8 8 7 5 8 nan nan nan nan nan nan 4 5 1 nan 5 nan nan nan 6 8 7 4 2 5 12 16 18 18 19 21 22 21 20 20 20 20 18 19 18 18 nan nan nan nan nan nan nan nan nan nan nan nan nan nan nan nan nan nan nan nan nan nan nan nan nan nan nan nan nan nan nan nan nan nan nan nan nan nan nan nan
8 nan nan 9 nan 7 5 7 4 5 6 8 9 7 6 4 4 nan 4 4 3 nan nan nan nan 8 nan 1 0 3 9 16 19 19 18 19 21 21 20 19 19 20 19 18 18 18 nan nan nan nan nan nan nan nan nan nan nan nan nan nan nan nan nan nan nan nan nan nan nan nan nan nan nan nan nan nan nan nan nan nan nan nan nan nan nan nan
nan nan nan 10 6 3 6 9 7 4 3 5 7 8 6 4 5 3 3 6 1 1 3 nan nan 4 nan 7 3 6 8 14 17 17 17 20 21 21 19 19 19 19 19 19 19 19 nan nan nan nan nan nan nan nan nan nan nan nan nan nan nan nan nan nan nan nan nan nan nan nan nan nan nan nan nan nan nan nan nan nan nan nan nan nan nan nan
12 9 6 7 6 5 9 nan nan 2 2 5 5 4 3 1 1 1 nan 5 1 3 nan 1 nan 8 10 10 7 5 8 12 16 16 16 19 21 21 20 20 19 19 20 20 20 20 nan nan nan nan nan nan nan nan nan nan nan nan nan nan nan nan nan nan nan nan nan nan nan nan nan nan nan nan nan nan nan nan nan nan nan nan nan nan nan nan
15 nan nan nan nan 10 nan nan nan nan nan 6 8 5 4 4 4 1 4 7 3 2 1 2 nan 10 15 13 11 9 9 10 14 16 17 18 19 20 20 20 20 20 20 20 20 20 nan nan nan nan nan nan nan nan nan nan nan nan nan nan nan nan nan nan nan nan nan nan nan nan nan nan nan nan nan nan nan nan nan nan nan nan nan nan nan nan
nan 11 7 nan nan 10 10 nan nan nan nan 3 3 8 7 nan 4 5 5 4 1 2 2 1 nan nan 17 14 13 13 14 14 17 17 17 19 20 20 20 20 19 20 21 21 22 nan nan nan nan nan nan nan nan nan nan nan nan nan nan nan nan nan nan nan nan nan nan nan nan nan nan nan nan nan nan nan nan nan nan nan nan nan nan nan nan nan
nan nan nan nan nan nan nan nan 9 9 6 6 4 6 9 7 8 10 7 6 3 3 1 2 nan 8 19 17 13 16 17 18 18 19 18 20 22 22 21 21 21 21 22 23 23 nan nan nan nan nan nan nan nan nan nan nan nan nan nan nan nan nan nan nan nan nan nan nan nan nan nan nan nan nan nan nan nan nan nan nan nan nan nan nan nan nan
16 15 9 nan 8 6 9 19 15 10 11 8 11 9 9 9 9 9 6 5 6 7 3 3 0 3 6 16 16 18 18 21 22 22 22 21 23 22 21 21 21 21 23 24 23 nan nan nan nan nan nan nan nan nan nan nan nan nan nan nan nan nan nan nan nan nan nan nan nan nan nan nan nan nan nan nan nan nan nan nan nan nan nan nan nan nan
17 15 11 8 8 11 nan nan 12 8 6 7 nan 10 9 10 11 11 10 7 9 5 nan 8 5 2 7 8 11 17 18 19 21 23 23 22 22 22 22 21 23 23 23 23 23 nan nan nan nan nan nan nan nan nan nan nan nan nan nan nan nan nan nan nan nan nan nan nan nan nan nan nan nan nan nan nan nan nan nan nan nan nan nan nan nan nan
16 16 19 13 9 14 17 17 14 11 9 9 nan 10 10 12 12 11 9 6 9 9 nan 15 10 3 5 8 11 11 17 18 20 23 23 24 24 23 24 24 25 25 26 26 25 nan nan nan nan nan nan nan nan nan nan nan nan nan nan nan nan nan nan nan nan nan nan nan nan nan nan nan nan nan nan nan nan nan nan nan nan nan nan nan nan nan
21 15 21 15 14 16 17 17 17 12 14 11 10 11 9 10 10 9 6 5 6 6 nan 4 5 3 4 7 9 14 15 16 17 18 20 24 25 25 25 25 26 26 27 27 26 24 nan nan nan nan nan nan nan nan nan nan nan nan nan nan nan nan nan nan nan nan nan nan nan nan nan nan nan nan nan nan nan nan nan nan nan nan nan nan nan nan
21 23 22 18 15 17 18 19 19 15 14 12 12 11 9 9 7 6 4 5 7 5 3 2 2 2 7 8 9 18 17 19 19 18 19 22 24 25 25 26 26 27 27 27 26 25 nan nan nan nan nan nan nan nan nan nan nan nan nan nan nan nan nan nan nan nan nan nan nan nan nan nan nan nan nan nan nan nan nan nan nan nan nan nan nan nan
23 24 21 18 15 18 20 15 18 17 15 13 13 11 10 nan nan 4 7 8 9 7 6 5 4 6 9 15 16 18 19 20 19 18 18 19 23 25 25 26 26 26 27 27 27 26 nan nan nan nan nan nan nan nan nan nan nan nan nan nan nan nan nan nan nan nan nan nan nan nan nan nan nan nan nan nan nan nan nan nan nan nan nan nan nan nan
23 23 21 19 17 19 25 17 18 19 16 13 11 10 nan nan nan nan 7 9 9 8 8 10 5 13 19 15 16 18 18 19 18 17 18 19 21 23 24 25 26 27 27 27 27 nan nan nan nan nan nan nan nan nan nan nan nan nan nan nan nan nan nan nan nan nan nan nan nan nan nan nan nan nan nan nan nan nan nan nan nan nan nan nan nan nan
25 20 20 19 20 21 25 20 20 19 15 nan 20 18 13 10 11 9 9 10 9 12 12 nan nan 16 16 17 13 17 17 17 15 15 17 19 20 21 22 23 25 27 27 27 nan nan nan nan nan nan nan nan nan nan nan nan nan nan nan nan nan nan nan nan nan nan nan nan nan nan nan nan nan nan nan nan nan nan nan nan nan nan nan nan nan nan
25 26 22 25 nan nan 27 22 19 17 nan 17 13 15 14 12 10 7 6 7 9 11 9 7 6 6 12 16 17 17 17 18 15 15 18 18 19 19 21 22 24 26 27 nan nan nan nan nan nan nan nan nan nan nan nan nan nan nan nan nan nan nan nan nan nan nan nan nan nan nan nan nan nan nan nan nan nan nan nan nan nan nan nan nan nan nan
27 28 31 27 26 29 27 20 nan 16 20 11 12 12 15 12 12 10 7 6 9 12 10 6 6 11 18 19 19 18 16 17 15 14 14 17 18 18 20 21 24 25 26 24 nan nan nan nan nan nan nan nan nan nan nan nan nan nan nan nan nan nan nan nan nan nan nan nan nan nan nan nan nan nan nan nan nan nan nan nan nan nan nan nan nan nan
25 26 30 30 31 26 nan 22 nan 21 12 7 8 8 10 9 13 12 11 13 24 nan nan 7 8 15 17 19 20 19 17 15 12 13 15 17 18 17 19 21 24 24 25 24 nan nan nan nan nan nan nan nan nan nan nan nan nan nan nan nan nan nan nan nan nan nan nan nan nan nan nan nan nan nan nan nan nan nan nan nan nan nan nan nan nan nan
27 26 29 nan nan 25 nan 23 nan nan nan nan 9 10 12 13 13 14 12 9 16 nan nan 6 8 15 17 19 20 19 17 14 11 14 18 19 18 18 18 21 23 24 25 25 nan nan nan nan nan nan nan nan nan nan nan nan nan nan nan nan nan nan nan nan nan nan nan nan nan nan nan nan nan nan nan nan nan nan nan nan nan nan nan nan nan nan
30 30 28 27 nan nan nan 22 nan nan nan nan 13 16 17 17 16 16 12 9 22 20 17 12 12 16 17 19 20 18 14 11 10 20 20 21 19 18 20 22 23 24 nan nan nan nan nan nan nan nan nan nan nan nan nan nan nan nan nan nan nan nan nan nan nan nan nan nan nan nan nan nan nan nan nan nan nan nan nan nan nan nan nan nan nan nan
30 30 30 26 nan nan 24 nan nan nan nan 18 18 21 21 20 22 16 12 15 24 18 17 15 13 16 17 18 19 15 11 8 16 20 21 22 21 20 21 23 24 nan nan nan nan nan nan nan nan nan nan nan nan nan nan nan nan nan nan nan nan nan nan nan nan nan nan nan nan nan nan nan nan nan nan nan nan nan nan nan nan nan nan nan nan nan
31 33 31 26 26 26 nan 24 24 nan 22 20 22 25 26 24 22 18 15 20 22 18 16 15 14 17 18 18 15 12 13 18 19 19 21 23 23 22 21 22 nan nan nan nan nan nan nan nan nan nan nan nan nan nan nan nan nan nan nan nan nan nan nan nan nan nan nan nan nan nan nan nan nan nan nan nan nan nan nan nan nan nan nan nan nan nan
29 32 33 30 25 nan 25 nan 24 24 25 25 24 26 28 25 nan nan 23 21 20 18 16 14 15 17 17 15 13 13 18 18 20 20 22 22 22 22 22 nan nan nan nan nan nan nan nan nan nan nan nan nan nan nan nan nan nan nan nan nan nan nan nan nan nan nan nan nan nan nan nan nan nan nan nan nan nan nan nan nan nan nan nan nan nan nan
34 33 31 nan 28 27 27 24 nan 22 24 23 29 28 26 22 22 26 25 20 18 17 17 16 15 18 17 16 13 16 15 17 18 20 21 20 22 23 nan 25 25 nan nan nan nan nan nan nan nan nan nan nan nan nan nan nan nan nan nan nan nan nan nan nan nan nan nan nan nan nan nan nan nan nan nan nan nan nan nan nan nan nan nan nan nan nan
43 37 33 28 28 29 26 25 nan 21 23 26 27 22 26 19 26 25 22 nan 17 16 17 18 17 18 17 17 16 15 15 17 18 20 20 21 22 nan nan nan 24 24 25 26 26 nan nan nan nan nan nan nan nan nan nan nan nan nan nan nan nan nan nan nan nan nan nan nan nan nan nan nan nan nan nan nan nan nan nan nan nan nan nan nan nan nan
41 35 37 30 31 nan 25 23 25 26 23 23 19 20 23 22 25 23 21 20 19 18 17 16 19 19 18 18 17 16 15 14 17 19 20 21 22 nan nan nan 24 25 26 27 27 nan nan nan nan nan nan nan nan nan nan nan nan nan nan nan nan nan nan nan nan nan nan nan nan nan nan nan nan nan nan nan nan nan nan nan nan nan nan nan nan nan
39 40 43 37 27 22 27 33 31 24 23 20 16 19 23 24 23 22 20 20 20 20 19 17 21 21 20 19 19 16 14 15 16 18 19 20 21 nan nan 22 23 24 26 27 27 nan nan nan nan nan nan nan nan nan nan nan nan nan nan nan nan nan nan nan nan nan nan nan nan nan nan nan nan nan nan nan nan nan nan nan nan nan nan nan nan nan
nan 35 38 nan 30 27 27 27 23 21 20 17 15 16 19 20 22 21 20 19 21 21 20 18 20 22 22 20 18 17 16 15 16 17 19 20 21 nan nan 22 22 25 27 nan nan nan nan nan nan nan nan nan nan nan nan nan nan nan nan nan nan nan nan nan nan nan nan nan nan nan nan nan nan nan nan nan nan nan nan nan nan nan nan nan nan nan
34 36 33 nan 22 nan 23 26 20 21 22 21 18 17 15 16 19 20 20 21 22 21 19 21 20 22 21 20 19 18 18 16 16 18 19 19 20 nan 20 21 23 23 nan nan nan nan nan nan nan nan nan nan nan nan nan nan nan nan nan nan nan nan nan nan nan nan nan nan nan nan nan nan nan nan nan nan nan nan nan nan nan nan nan nan nan nan
37 35 nan nan 24 19 23 27 27 26 22 19 18 16 17 19 20 21 21 20 20 20 21 22 19 20 20 20 21 20 20 17 16 18 19 20 20 20 20 21 22 24 nan nan nan nan nan nan nan nan nan nan nan nan nan nan nan nan nan nan nan nan nan nan nan nan nan nan nan nan nan nan nan nan nan nan nan nan nan nan nan nan nan nan nan nan
32 22 21 26 21 nan 20 22 27 26 25 23 18 15 16 21 23 24 24 21 21 21 22 23 22 21 20 21 21 20 20 18 18 18 20 20 20 21 nan nan nan nan nan nan nan nan nan nan nan nan nan nan nan nan nan nan nan nan nan nan nan nan nan nan nan nan nan nan nan nan nan nan nan nan nan nan nan nan nan nan nan nan nan nan nan nan
nan 23 18 20 nan nan 18 18 24 21 21 29 31 26 19 24 23 23 23 21 21 21 22 23 24 23 22 21 20 19 19 19 19 19 19 20 20 21 nan nan nan nan nan nan nan nan nan nan nan nan nan nan nan nan nan nan nan nan nan nan nan nan nan nan nan nan nan nan nan nan nan nan nan nan nan nan nan nan nan nan nan nan nan nan nan nan
Wind_Direction
96 75 61 68 72 69 77 101 119 95 74 48 43 42 25 5 17 30 44 40 97 80 101 80 74 66 56 54 54 64 65 74 76 80 93 97 91 98 103 108 97 83 72 53 nan nan nan nan nan nan nan nan nan nan nan nan nan nan nan nan nan nan nan nan nan nan nan nan nan nan nan nan nan nan nan nan nan nan nan nan nan nan nan nan nan nan
88 81 75 94 105 93 85 88 99 85 62 51 44 39 33 41 31 63 67 80 69 93 71 77 69 73 71 65 63 65 70 69 71 69 71 74 81 96 98 86 79 68 61 30 nan nan nan nan nan nan nan nan nan nan nan nan nan nan nan nan nan nan nan nan nan nan nan nan nan nan nan nan nan nan nan nan nan nan nan nan nan nan nan nan nan nan
71 84 96 75 58 70 87 90 74 74 65 58 59 63 59 58 42 60 78 84 89 85 75 62 67 69 68 66 65 68 73 82 81 89 88 81 79 75 69 75 70 53 36 36 nan nan nan nan nan nan nan nan nan nan nan nan nan nan nan nan nan nan nan nan nan nan nan nan nan nan nan nan nan nan nan nan nan nan nan nan nan nan nan nan nan nan
79 78 85 57 51 40 65 73 64 65 78 79 71 70 78 52 65 57 65 63 67 89 69 66 68 66 61 65 63 70 69 74 83 82 83 85 72 70 63 64 56 35 24 28 nan nan nan nan nan nan nan nan nan nan nan nan nan nan nan nan nan nan nan nan nan nan nan nan nan nan nan nan nan nan nan nan nan nan nan nan nan nan nan nan nan nan
87 131 61 36 23 30 29 48 55 65 75 94 99 nan 75 65 87 93 55 65 66 66 75 62 67 50 50 49 54 43 61 63 54 55 63 66 71 64 68 52 54 36 26 15 nan nan nan nan nan nan nan nan nan nan nan nan nan nan nan nan nan nan nan nan nan nan nan nan nan nan nan nan nan nan nan nan nan nan nan nan nan nan nan nan nan nan
66 95 50 14 11 15 nan 41 nan 74 70 nan 105 109 93 75 65 64 43 50 57 55 47 63 58 40 22 37 31 16 32 44 39 47 47 46 42 56 51 39 31 34 37 nan nan nan nan nan nan nan nan nan nan nan nan nan nan nan nan nan nan nan nan nan nan nan nan nan nan nan nan nan nan nan nan nan nan nan nan nan nan nan nan nan nan nan
99 31 46 360 10 12 nan 52 63 88 83 86 89 92 80 71 61 50 49 67 72 73 30 40 78 nan 23 22 18 12 23 24 27 44 43 34 39 43 50 26 16 27 11 nan nan nan nan nan nan nan nan nan nan nan nan nan nan nan nan nan nan nan nan nan nan nan nan nan nan nan nan nan nan nan nan nan nan nan nan nan nan nan nan nan nan nan
36 28 22 20 14 25 nan nan 48 83 90 90 74 81 80 69 58 55 67 73 77 61 32 49 57 74 18 12 9 12 23 21 24 31 36 32 29 29 31 14 4 14 5 358 nan nan nan nan nan nan nan nan nan nan nan nan nan nan nan nan nan nan nan nan nan nan nan nan nan nan nan nan nan nan nan nan nan nan nan nan nan nan nan nan nan nan
31 23 26 17 21 30 nan 32 29 86 110 126 73 78 75 70 66 73 81 79 79 76 42 34 40 58 28 349 4 12 27 26 27 27 27 24 17 16 19 13 2 359 355 nan nan nan nan nan nan nan nan nan nan nan nan nan nan nan nan nan nan nan nan nan nan nan nan nan nan nan nan nan nan nan nan nan nan nan nan nan nan nan nan nan nan nan
50 47 29 20 38 19 3 11 34 92 97 79 nan 81 85 78 71 76 85 81 67 67 50 36 39 78 5 359 7 13 42 32 28 23 22 14 11 2 8 4 358 351 349 nan nan nan nan nan nan nan nan nan nan nan nan nan nan nan nan nan nan nan nan nan nan nan nan nan nan nan nan nan nan nan nan nan nan nan nan nan nan nan nan nan nan nan
16 62 79 37 36 19 7 5 87 111 142 355 51 71 67 71 71 67 79 80 72 54 31 37 49 83 66 3 1 13 25 36 18 10 10 5 1 351 354 357 355 nan nan nan nan nan nan nan nan nan nan nan nan nan nan nan nan nan nan nan nan nan nan nan nan nan nan nan nan nan nan nan nan nan nan nan nan nan nan nan nan nan nan nan nan nan
14 12 33 18 26 nan 14 12 109 125 89 62 70 80 80 65 68 68 61 55 68 29 35 31 46 54 79 342 5 356 345 17 14 357 359 0 354 347 347 352 348 nan nan nan nan nan nan nan nan nan nan nan nan nan nan nan nan nan nan nan nan nan nan nan nan nan nan nan nan nan nan nan nan nan nan nan nan nan nan nan nan nan nan nan nan nan
26 29 358 2 28 20 17 55 114 110 98 92 93 84 86 58 52 61 29 nan nan 155 329 48 31 41 50 75 315 353 357 0 26 359 354 356 350 343 346 346 344 nan nan nan nan nan nan nan nan nan nan nan nan nan nan nan nan nan nan nan nan nan nan nan nan nan nan nan nan nan nan nan nan nan nan nan nan nan nan nan nan nan nan nan nan nan
244 17 13 1 20 29 35 63 91 95 85 87 84 87 88 89 nan nan 55 49 25 12 28 35 6 69 52 332 339 21 5 357 2 9 347 350 346 344 345 347 343 343 nan nan 342 344 nan nan nan nan nan nan nan nan nan nan nan nan nan nan nan nan nan nan nan nan nan nan nan nan nan nan nan nan nan nan nan nan nan nan nan nan nan nan nan nan
nan 23 17 353 25 10 33 76 34 96 72 85 98 nan 107 105 106 nan 127 114 112 100 353 2 39 147 109 324 344 310 342 12 349 1 343 346 346 346 347 348 343 346 348 347 347 nan nan nan nan nan nan nan nan nan nan nan nan nan nan nan nan nan nan nan nan nan nan nan nan nan nan nan nan nan nan nan nan nan nan nan nan nan nan nan nan nan
nan nan 295 357 206 359 28 22 78 93 77 82 92 93 92 104 107 104 119 106 108 nan 32 19 41 219 223 327 312 337 6 4 344 341 344 342 346 346 346 349 346 348 351 351 348 343 nan nan nan nan nan nan nan nan nan nan nan nan nan nan nan nan nan nan nan nan nan nan nan nan nan nan nan nan nan nan nan nan nan nan nan nan nan nan nan nan
nan nan nan 344 nan 26 31 6 32 46 107 5 58 75 119 nan nan 98 55 52 37 35 19 nan 24 342 317 13 351 359 357 351 349 342 345 342 341 345 349 348 348 348 349 352 346 343 nan nan nan nan nan nan nan nan nan nan nan nan nan nan nan nan nan nan nan nan nan nan nan nan nan nan nan nan nan nan nan nan nan nan nan nan nan nan nan nan
nan 245 nan nan 358 11 45 29 30 19 nan 6 73 34 nan nan 117 101 126 53 36 17 nan 40 60 309 nan 334 333 11 357 345 354 346 345 342 341 347 349 349 347 346 346 348 344 339 nan nan nan nan nan nan nan nan nan nan nan nan nan nan nan nan nan nan nan nan nan nan nan nan nan nan nan nan nan nan nan nan nan nan nan nan nan nan nan nan
nan nan nan nan 256 317 1 5 16 24 nan 103 174 nan 84 54 29 348 nan nan nan nan nan 332 54 319 251 316 357 354 359 347 350 345 342 342 344 347 348 350 344 341 342 345 342 338 nan nan nan nan nan nan nan nan nan nan nan nan nan nan nan nan nan nan nan nan nan nan nan nan nan nan nan nan nan nan nan nan nan nan nan nan nan nan nan nan
nan nan 273 nan 293 304 356 359 9 2 nan nan nan nan nan nan 112 110 173 nan 100 nan nan nan 104 275 260 248 164 320 355 348 346 344 345 343 344 345 347 348 341 340 342 343 339 338 nan nan nan nan nan nan nan nan nan nan nan nan nan nan nan nan nan nan nan nan nan nan nan nan nan nan nan nan nan nan nan nan nan nan nan nan nan nan nan nan
236 nan nan 277 nan 310 356 336 350 1 10 0 7 12 335 17 245 nan 66 95 163 nan nan nan nan 278 nan 197 359 297 342 352 351 350 345 343 343 344 345 344 341 339 342 341 338 337 nan nan nan nan nan nan nan nan nan nan nan nan nan nan nan nan nan nan nan nan nan nan nan nan nan nan nan nan nan nan nan nan nan nan nan nan nan nan nan nan
nan nan nan 269 294 318 248 291 328 33 31 24 6 8 351 3 351 3 295 316 47 65 249 nan nan 280 nan 315 341 342 341 351 357 352 348 346 344 343 342 343 341 338 340 339 335 333 nan nan nan nan nan nan nan nan nan nan nan nan nan nan nan nan nan nan nan nan nan nan nan nan nan nan nan nan nan nan nan nan nan nan nan nan nan nan nan nan
220 237 250 247 249 254 249 nan nan 337 42 76 56 13 327 318 260 155 nan 270 11 295 nan 352 nan 298 317 305 312 330 335 349 352 350 349 348 345 344 341 340 340 338 339 337 333 329 nan nan nan nan nan nan nan nan nan nan nan nan nan nan nan nan nan nan nan nan nan nan nan nan nan nan nan nan nan nan nan nan nan nan nan nan nan nan nan nan
234 nan nan nan nan 250 nan nan nan nan nan 28 22 27 331 335 307 218 205 215 168 179 6 313 nan 291 301 305 304 315 329 341 341 348 349 346 346 346 342 338 338 336 338 335 330 325 nan nan nan nan nan nan nan nan nan nan nan nan nan nan nan nan nan nan nan nan nan nan nan nan nan nan nan nan nan nan nan nan nan nan nan nan nan nan nan nan
nan 244 219 nan nan 262 264 nan nan nan nan 317 301 318 349 nan 309 262 239 248 179 106 144 162 nan nan 297 302 308 314 327 336 338 342 346 341 342 346 345 341 337 334 333 333 329 nan nan nan nan nan nan nan nan nan nan nan nan nan nan nan nan nan nan nan nan nan nan nan nan nan nan nan nan nan nan nan nan nan nan nan nan nan nan nan nan nan
nan nan nan nan nan nan nan nan 268 284 320 315 324 318 324 340 322 296 284 301 299 271 211 271 nan 280 293 299 306 321 327 333 334 336 341 338 341 345 346 343 337 333 332 330 327 nan nan nan nan nan nan nan nan nan nan nan nan nan nan nan nan nan nan nan nan nan nan nan nan nan nan nan nan nan nan nan nan nan nan nan nan nan nan nan nan nan
240 244 246 nan 222 220 221 242 240 229 284 312 308 333 320 316 310 310 275 280 286 277 307 311 64 227 274 304 322 329 329 334 334 334 340 338 339 342 342 340 337 334 332 331 327 nan nan nan nan nan nan nan nan nan nan nan nan nan nan nan nan nan nan nan nan nan nan nan nan nan nan nan nan nan nan nan nan nan nan nan nan nan nan nan nan nan
245 245 258 240 218 209 nan nan 250 267 287 298 nan 299 299 300 306 310 294 292 276 267 nan 272 285 291 284 282 286 310 327 331 332 335 338 336 334 338 337 335 334 332 331 328 327 nan nan nan nan nan nan nan nan nan nan nan nan nan nan nan nan nan nan nan nan nan nan nan nan nan nan nan nan nan nan nan nan nan nan nan nan nan nan nan nan nan
252 243 252 254 259 241 250 261 271 277 263 258 nan 274 288 292 301 318 326 333 287 279 nan 260 267 286 263 254 260 291 321 331 332 336 339 333 331 334 334 335 335 334 333 332 331 nan nan nan nan nan nan nan nan nan nan nan nan nan nan nan nan nan nan nan nan nan nan nan nan nan nan nan nan nan nan nan nan nan nan nan nan nan nan nan nan nan
251 255 254 259 257 261 265 269 272 274 274 276 275 276 279 293 306 316 320 303 301 293 nan 217 230 221 253 257 265 284 300 316 315 321 327 330 332 332 335 337 337 335 335 335 332 330 nan nan nan nan nan nan nan nan nan nan nan nan nan nan nan nan nan nan nan nan nan nan nan nan nan nan nan nan nan nan nan nan nan nan nan nan nan nan nan nan
258 258 260 269 270 272 270 272 273 276 276 273 275 270 271 277 280 298 306 286 258 274 274 250 270 218 240 261 287 293 295 298 303 319 328 328 329 333 337 338 337 337 335 332 330 328 nan nan nan nan nan nan nan nan nan nan nan nan nan nan nan nan nan nan nan nan nan nan nan nan nan nan nan nan nan nan nan nan nan nan nan nan nan nan nan nan
259 256 262 267 264 274 274 276 278 271 272 264 252 257 262 nan nan 266 293 298 302 305 289 284 278 281 273 283 287 292 301 310 317 323 327 328 331 334 339 339 336 333 332 330 328 325 nan nan nan nan nan nan nan nan nan nan nan nan nan nan nan nan nan nan nan nan nan nan nan nan nan nan nan nan nan nan nan nan nan nan nan nan nan nan nan nan
260 259 260 258 258 259 268 268 276 270 261 271 286 297 nan nan nan nan 307 299 314 304 284 273 271 258 275 291 293 292 300 306 315 325 329 329 331 337 340 338 332 328 328 326 326 nan nan nan nan nan nan nan nan nan nan nan nan nan nan nan nan nan nan nan nan nan nan nan nan nan nan nan nan nan nan nan nan nan nan nan nan nan nan nan nan nan
254 256 245 252 253 253 269 268 272 273 270 nan 264 268 276 286 298 305 293 297 307 306 300 nan nan 268 274 273 276 284 300 302 308 313 319 325 328 335 336 333 327 324 322 321 nan nan nan nan nan nan nan nan nan nan nan nan nan nan nan nan nan nan nan nan nan nan nan nan nan nan nan nan nan nan nan nan nan nan nan nan nan nan nan nan nan nan
255 259 251 253 nan nan 264 266 268 270 nan 264 281 274 273 272 275 282 277 281 271 291 315 328 331 310 282 278 277 277 280 278 282 301 313 324 327 328 329 324 319 318 317 nan nan nan nan nan nan nan nan nan nan nan nan nan nan nan nan nan nan nan nan nan nan nan nan nan nan nan nan nan nan nan nan nan nan nan nan nan nan nan nan nan nan nan
249 255 256 257 254 254 260 261 nan 261 271 285 274 272 269 276 277 272 269 274 285 274 271 284 284 271 279 284 285 284 289 286 291 299 312 318 322 322 321 315 314 316 317 318 nan nan nan nan nan nan nan nan nan nan nan nan nan nan nan nan nan nan nan nan nan nan nan nan nan nan nan nan nan nan nan nan nan nan nan nan nan nan nan nan nan nan
245 251 256 255 257 258 nan 263 nan 258 251 268 267 285 306 287 293 287 263 258 264 nan nan 241 261 277 281 284 286 286 289 294 297 303 313 316 319 321 319 312 314 317 316 315 nan nan nan nan nan nan nan nan nan nan nan nan nan nan nan nan nan nan nan nan nan nan nan nan nan nan nan nan nan nan nan nan nan nan nan nan nan nan nan nan nan nan
245 248 250 nan nan 259 nan 259 nan nan nan nan 291 297 291 278 276 270 275 273 297 nan nan 276 270 279 284 287 288 290 293 300 307 309 312 312 316 317 311 307 311 313 313 310 nan nan nan nan nan nan nan nan nan nan nan nan nan nan nan nan nan nan nan nan nan nan nan nan nan nan nan nan nan nan nan nan nan nan nan nan nan nan nan nan nan nan
244 245 247 252 nan nan nan 256 nan nan nan nan 279 289 287 287 289 283 285 276 283 286 285 283 276 283 289 293 293 296 303 297 289 283 299 306 311 313 309 308 311 312 nan nan nan nan nan nan nan nan nan nan nan nan nan nan nan nan nan nan nan nan nan nan nan nan nan nan nan nan nan nan nan nan nan nan nan nan nan nan nan nan nan nan nan nan
247 248 249 250 nan nan 258 nan nan nan nan 274 282 281 280 283 281 282 278 272 278 280 282 285 278 284 289 291 295 299 305 284 268 274 291 305 309 310 308 309 311 nan nan nan nan nan nan nan nan nan nan nan nan nan nan nan nan nan nan nan nan nan nan nan nan nan nan nan nan nan nan nan nan nan nan nan nan nan nan nan nan nan nan nan nan nan
243 242 247 251 255 261 nan 256 259 nan 264 268 273 275 273 275 278 275 274 263 274 276 284 285 278 281 286 291 295 293 276 259 267 278 290 300 305 307 305 307 nan nan nan nan nan nan nan nan nan nan nan nan nan nan nan nan nan nan nan nan nan nan nan nan nan nan nan nan nan nan nan nan nan nan nan nan nan nan nan nan nan nan nan nan nan nan
238 242 242 244 250 nan 263 nan 261 256 253 269 269 274 275 275 nan nan 259 259 272 278 278 283 281 282 285 288 293 259 264 262 261 275 290 301 306 306 307 nan nan nan nan nan nan nan nan nan nan nan nan nan nan nan nan nan nan nan nan nan nan nan nan nan nan nan nan nan nan nan nan nan nan nan nan nan nan nan nan nan nan nan nan nan nan nan
236 237 241 nan 247 249 253 254 nan 261 265 279 276 269 269 267 262 258 262 258 259 269 283 288 286 285 288 285 281 263 271 271 272 280 291 299 304 307 nan 309 307 nan nan nan nan nan nan nan nan nan nan nan nan nan nan nan nan nan nan nan nan nan nan nan nan nan nan nan nan nan nan nan nan nan nan nan nan nan nan nan nan nan nan nan nan nan
233 233 235 236 243 245 253 255 nan 257 270 286 283 267 283 284 267 279 288 nan 279 277 284 284 288 289 292 284 283 274 271 276 279 286 293 299 300 nan nan nan 305 303 304 307 308 nan nan nan nan nan nan nan nan nan nan nan nan nan nan nan nan nan nan nan nan nan nan nan nan nan nan nan nan nan nan nan nan nan nan nan nan nan nan nan nan nan
244 237 234 229 237 nan 243 252 256 255 270 286 288 257 271 286 271 271 274 271 280 282 281 282 288 291 294 288 285 281 277 279 286 293 298 302 304 nan nan nan 311 310 311 311 310 nan nan nan nan nan nan nan nan nan nan nan nan nan nan nan nan nan nan nan nan nan nan nan nan nan nan nan nan nan nan nan nan nan nan nan nan nan nan nan nan nan
235 232 230 230 236 240 235 244 246 253 261 276 282 263 261 268 273 268 274 275 274 269 283 281 288 294 296 293 291 287 281 284 289 295 296 301 302 nan nan 308 310 311 310 308 307 nan nan nan nan nan nan nan nan nan nan nan nan nan nan nan nan nan nan nan nan nan nan nan nan nan nan nan nan nan nan nan nan nan nan nan nan nan nan nan nan nan
nan 236 233 nan 227 234 238 254 250 257 263 265 267 269 264 262 267 274 275 274 268 270 277 271 284 296 301 299 298 292 289 289 292 292 294 298 302 nan nan 310 312 313 314 nan nan nan nan nan nan nan nan nan nan nan nan nan nan nan nan nan nan nan nan nan nan nan nan nan nan nan nan nan nan nan nan nan nan nan nan nan nan nan nan nan nan nan
242 240 224 nan 231 nan 231 243 250 252 251 249 251 264 275 277 273 273 273 270 270 268 274 277 281 290 295 297 297 293 290 292 294 294 295 298 300 nan 307 310 311 311 nan nan nan nan nan nan nan nan nan nan nan nan nan nan nan nan nan nan nan nan nan nan nan nan nan nan nan nan nan nan nan nan nan nan nan nan nan nan nan nan nan nan nan nan
242 250 nan nan 229 228 238 242 243 243 246 250 251 253 252 258 271 276 278 278 278 280 281 278 280 286 291 291 293 292 293 295 295 297 297 295 298 302 306 308 311 311 nan nan nan nan nan nan nan nan nan nan nan nan nan nan nan nan nan nan nan nan nan nan nan nan nan nan nan nan nan nan nan nan nan nan nan nan nan nan nan nan nan nan nan nan
239 240 242 243 232 nan 238 246 250 241 244 252 258 260 262 258 260 272 277 279 283 286 286 284 278 277 281 283 289 291 294 294 296 298 299 297 299 302 nan nan nan nan nan nan nan nan nan nan nan nan nan nan nan nan nan nan nan nan nan nan nan nan nan nan nan nan nan nan nan nan nan nan nan nan nan nan nan nan nan nan nan nan nan nan nan nan
nan 227 228 244 nan nan 226 233 248 241 226 231 233 234 242 264 267 273 278 282 285 287 288 286 281 278 279 281 283 289 291 294 298 300 298 295 297 299 nan nan nan nan nan nan nan nan nan nan nan nan nan nan nan nan nan nan nan nan nan nan nan nan nan nan nan nan nan nan nan nan nan nan nan nan nan nan nan nan nan nan nan nan nan nan nan nan